SCP
0 0 0 0 0 0 0 0 0 0 0 0 0 0 0 0 0 0 0 1 0 0 0 0 0 1 1 1 2 2 3 3 3 3 3 3 2 2 2 1 1 1 1
0 0 0 0 0 0 0 0 0 0 0 0 0 0 0 0 1 1 1 0 0 0 0 0 0 0 1 1 1 2 3 3 4 4 4 3 3 3 2 2 1 1 1
1 1 0 0 0 0 0 0 0 0 0 0 0 0 0 0 1 1 0 0 0 0 0 0 0 0 0 1 1 1 2 3 4 4 4 4 4 3 3 3 2 2 2
1 1 1 0 0 0 0 0 0 0 0 0 0 0 0 0 0 0 0 0 0 0 0 0 0 0 0 0 1 1 1 2 3 3 4 4 4 4 4 3 3 2 2
0 0 0 0 0 0 0 0 0 0 0 0 0 0 0 0 0 0 0 0 0 0 0 0 0 0 0 0 0 0 0 1 1 2 3 3 4 4 4 4 3 3 2
0 0 0 0 0 0 0 0 0 0 0 0 0 0 0 0 0 0 0 0 0 0 0 0 0 0 0 0 0 0 0 0 0 1 1 2 3 4 4 4 3 3 3
0 0 0 0 0 0 0 0 0 0 0 0 0 0 0 0 0 0 0 0 0 0 0 0 0 0 0 0 0 0 0 0 0 0 0 1 2 3 3 3 3 3 3
0 0 0 0 0 0 0 0 0 0 0 0 0 0 0 0 0 0 0 0 0 0 0 0 0 0 0 0 0 0 0 0 0 0 0 0 1 1 2 2 2 2 2
0 0 0 0 0 0 0 0 0 0 0 0 0 0 0 0 0 0 0 0 0 0 0 0 0 0 0 0 0 0 0 0 0 0 0 0 0 1 1 1 1 2 2
0 0 0 0 0 0 0 0 0 0 0 0 0 0 0 0 0 0 0 0 0 0 0 0 0 0 0 0 0 0 0 0 0 0 0 0 0 0 0 1 1 1 1
0 0 0 0 0 0 0 0 0 0 0 0 0 0 0 0 0 0 0 0 0 0 0 0 0 0 0 0 0 0 0 0 0 0 0 0 0 0 0 1 1 1 1
0 0 0 0 0 0 0 0 0 0 0 0 0 0 0 0 0 0 0 0 0 0 0 0 0 0 0 0 0 0 0 0 0 0 0 0 0 0 0 0 1 0 0
0 0 0 0 0 0 0 0 0 0 0 0 0 0 0 0 0 0 0 0 0 0 0 0 0 0 0 0 0 0 0 0 0 0 0 0 0 0 0 0 0 0 0
0 0 0 0 0 0 0 0 0 0 0 0 0 0 0 0 0 0 0 0 0 0 0 0 0 0 0 0 0 0 0 0 0 0 0 0 0 0 0 0 0 0 0
0 0 0 0 0 0 0 0 0 0 0 0 0 0 0 0 0 0 0 0 0 0 0 0 0 0 0 0 0 0 0 0 0 0 0 0 0 0 0 0 0 0 0
0 0 0 0 0 0 0 0 0 0 0 0 0 0 0 0 0 0 0 0 0 0 0 0 0 0 0 0 0 0 0 0 0 0 0 0 0 0 0 0 0 0 0
0 0 0 0 0 0 0 0 0 0 0 0 0 0 0 0 0 0 0 0 0 0 0 0 0 0 0 0 0 0 0 0 0 0 0 0 0 0 0 0 0 0 0
0 0 0 0 0 0 0 0 0 0 0 0 0 0 0 0 0 0 0 0 0 0 0 0 0 0 0 0 0 0 0 0 0 0 0 0 0 0 0 0 0 0 0
0 0 0 0 0 0 0 0 0 0 0 0 0 0 0 0 0 0 0 0 0 0 0 0 0 0 0 0 0 0 0 0 0 0 0 0 0 0 0 0 0 0 0
0 0 0 0 0 0 0 0 0 0 0 0 0 0 0 0 0 0 0 0 0 0 0 0 0 0 0 0 0 0 0 0 0 0 0 0 0 0 0 0 0 0 0
0 0 0 0 0 0 0 0 0 0 0 0 0 0 0 0 0 0 0 0 0 0 0 0 -0 -0 0 0 0 0 0 -0 0 0 0 0 0 0 0 0 0 0 0
0 0 0 0 0 0 0 0 0 0 0 0 0 0 0 0 0 0 0 0 0 0 0 0 -0 0 0 -0 -0 -0 -0 -0 -0 0 0 0 0 0 0 0 0 0 0
0 0 0 0 0 0 0 -0 0 0 0 0 0 0 0 0 -0 0 0 0 0 0 0 0 0 0 0 -0 -0 -0 -0 -0 -0 0 0 0 0 0 0 0 0 0 0
0 0 0 0 0 0 0 0 0 0 0 0 0 0 0 0 0 0 0 0 0 0 0 0 0 0 0 0 -0 -0 0 0 0 0 0 0 0 0 0 0 0 0 0
0 0 0 0 0 0 0 0 0 0 0 0 0 0 0 0 0 0 0 0 0 0 0 0 0 0 0 0 0 0 0 0 0 0 0 0 0 0 0 0 0 0 0
0 0 0 0 0 0 0 0 0 0 0 0 0 0 0 0 0 0 0 0 0 0 0 0 0 0 0 0 0 0 0 0 0 0 0 0 0 0 0 0 0 0 0
Wind_Speed
3 3 2 1 1 2 3 3 3 3 4 5 5 5 5 5 3 4 1 7 3 4 5 4 5 6 6 6 7 9 10 11 12 12 12 11 11 10 12 14 15 15 16
1 3 2 3 2 3 5 5 5 5 5 5 5 5 5 6 4 4 5 1 6 1 3 4 3 4 5 7 7 8 8 10 11 12 13 14 14 14 14 14 15 15 15
2 2 1 2 3 3 3 2 4 3 4 5 5 5 5 5 5 4 5 5 2 5 5 4 3 2 3 4 5 6 8 9 11 12 14 14 15 15 16 17 17 17 16
3 1 1 3 3 3 3 3 4 5 4 5 5 5 5 5 6 6 8 8 8 7 9 11 8 5 5 5 4 5 7 9 11 12 13 15 16 16 17 17 18 18 18
6 4 5 5 4 4 5 5 4 4 5 6 6 7 6 7 9 9 11 11 11 11 9 7 12 11 9 6 5 7 10 11 12 13 14 14 16 18 18 18 20 21 21
7 5 5 5 5 4 5 5 5 5 6 6 8 9 8 7 8 10 13 11 11 10 8 7 8 11 13 6 5 8 11 12 13 14 15 16 14 15 18 20 20 22 23
7 6 4 5 5 5 5 5 4 6 6 5 7 10 10 10 11 9 8 6 9 7 7 7 7 6 6 6 9 11 10 12 15 16 16 17 15 14 17 20 20 21 23
6 5 4 4 5 5 4 4 5 6 6 5 6 10 11 11 8 5 5 6 8 8 8 7 8 8 9 9 10 10 8 14 18 20 19 20 18 16 18 20 19 19 21
4 5 6 5 5 6 4 4 4 6 6 6 4 6 9 10 11 10 8 6 6 7 9 9 10 11 11 9 11 14 14 10 16 19 22 23 20 18 19 20 21 23 22
5 5 4 4 3 4 3 3 4 5 6 6 6 5 6 9 10 10 10 10 10 9 9 9 11 10 11 9 9 10 11 10 14 18 20 23 23 19 19 21 20 20 23
3 5 4 4 3 3 3 3 4 5 5 6 6 6 7 7 9 11 11 11 11 10 10 10 10 9 10 10 9 6 4 8 14 16 17 19 18 16 18 18 17 19 20
2 5 5 4 3 3 3 3 3 4 4 5 5 5 6 7 8 10 12 12 13 13 12 10 10 10 9 9 10 6 5 10 12 13 15 15 14 14 16 17 17 19 20
2 5 3 3 3 3 4 4 4 4 3 4 5 6 7 8 8 9 11 12 15 12 12 11 10 9 9 8 10 4 6 10 11 12 13 13 12 13 14 16 16 18 18
3 2 3 3 4 4 4 5 6 5 4 5 6 6 7 9 9 10 10 12 15 13 14 16 11 10 8 8 10 3 7 9 9 9 10 11 13 13 13 15 14 15 14
2 3 4 5 5 6 6 7 7 7 8 8 8 8 8 9 10 9 11 12 13 11 14 18 14 15 9 8 8 8 7 10 7 7 9 10 13 16 15 16 14 13 11
4 5 5 6 7 8 8 8 9 10 9 10 10 11 12 10 9 9 9 9 13 13 14 17 14 12 11 9 11 12 11 15 11 12 12 10 13 15 15 16 16 14 13
5 6 6 7 9 10 11 11 12 13 14 12 11 13 15 15 12 11 11 10 10 12 16 14 14 12 14 12 12 12 11 9 8 13 13 11 12 13 12 10 15 16 14
7 8 9 10 12 13 13 14 14 15 16 16 14 16 16 16 14 13 12 13 12 11 15 16 15 14 13 14 13 13 10 9 9 9 6 8 10 11 10 6 6 7 8
9 10 12 13 14 14 15 14 14 15 15 14 15 16 15 18 16 15 14 13 13 11 12 13 15 14 12 12 13 10 8 10 9 10 7 9 12 12 11 9 9 9 8
11 12 13 13 13 13 12 11 11 11 12 11 12 13 14 14 16 15 14 15 13 13 11 12 14 13 13 11 9 9 10 9 7 5 7 9 10 11 12 11 11 11 10
9 9 9 9 9 8 8 10 12 13 14 12 14 15 14 17 20 18 15 15 14 12 11 11 13 13 10 10 10 8 11 9 8 5 6 7 7 8 9 12 12 8 9
7 7 7 8 8 6 10 10 12 14 14 14 15 15 14 16 19 19 17 19 18 17 16 14 13 13 13 11 11 6 7 9 7 5 5 5 5 5 5 4 5 9 15
7 7 8 8 8 6 7 8 12 14 13 13 14 13 13 13 14 13 15 17 19 20 21 17 16 18 16 14 10 8 8 10 7 4 5 4 4 4 4 1 5 12 19
8 8 8 8 7 3 4 9 15 14 13 13 12 12 12 13 14 14 14 14 14 16 17 15 15 14 12 11 10 10 10 8 2 2 3 2 4 3 1 2 8 16 22
7 8 7 7 7 6 4 8 13 11 11 13 11 11 12 11 13 15 14 14 15 14 14 16 16 16 18 20 16 9 6 4 3 3 3 2 1 1 1 3 7 16 21
7 8 8 7 6 8 4 6 12 10 11 11 11 11 15 15 16 16 13 13 14 14 10 7 7 8 9 9 6 7 4 3 2 2 4 2 1 1 0 2 4 7 10
Wind_Direction
184 199 149 252 289 283 267 276 279 254 261 250 258 268 273 280 286 290 305 115 98 317 295 278 281 282 273 260 254 247 240 238 236 235 235 238 240 234 223 220 217 211 200
257 273 240 251 301 329 341 343 342 318 304 304 288 286 297 289 295 307 297 182 117 99 337 304 257 261 269 272 271 271 267 253 243 238 233 229 227 225 224 225 227 223 214
342 285 305 4 34 29 4 352 320 311 308 321 312 304 288 296 308 306 301 297 240 178 165 221 244 227 225 238 258 269 272 272 261 248 243 238 233 227 220 218 221 223 219
26 356 55 53 22 17 11 3 352 336 329 328 318 307 308 295 277 267 257 256 264 255 208 197 196 216 248 249 269 284 289 285 282 269 260 248 239 235 229 220 216 218 219
46 38 41 43 12 21 21 360 357 349 327 314 309 299 293 288 286 279 282 273 267 264 260 204 188 188 217 239 277 291 284 279 282 281 273 260 248 238 231 225 219 215 215
61 57 69 41 19 22 25 8 348 335 317 317 304 296 287 274 273 274 267 258 251 249 245 247 217 202 189 203 264 285 286 286 282 282 282 272 259 248 237 228 222 217 215
56 39 39 37 12 17 10 353 336 307 296 304 302 289 274 262 251 248 265 269 267 254 241 243 249 259 239 244 242 242 261 288 290 287 287 285 273 266 249 234 228 221 217
63 56 20 354 354 327 296 314 319 302 291 291 298 305 291 280 258 291 315 290 283 286 281 272 272 286 285 282 277 269 274 275 279 275 277 282 284 273 263 238 227 232 229
44 19 358 346 325 294 326 336 330 320 322 313 311 299 312 316 334 307 291 299 327 313 307 303 286 280 281 285 285 272 264 276 278 279 277 274 273 271 262 252 237 235 228
356 357 357 4 349 330 21 360 16 336 336 325 325 310 308 308 307 310 321 315 303 289 293 296 285 283 281 281 284 291 288 287 283 282 277 273 269 276 275 256 242 242 233
14 4 22 25 6 354 38 15 3 349 335 335 326 327 318 308 301 295 292 291 290 286 280 278 280 284 279 279 277 270 288 278 275 281 280 279 273 283 287 286 268 249 241
36 47 18 27 0 342 347 332 342 338 340 329 325 315 312 316 313 306 304 301 296 293 293 291 286 280 278 276 278 274 273 266 277 286 287 281 272 279 283 284 283 273 255
30 63 357 1 334 336 317 310 311 307 307 312 312 317 321 315 308 303 303 303 297 295 294 294 286 285 285 283 274 248 255 267 266 272 276 280 277 275 279 282 279 276 269
27 31 329 338 328 321 314 301 288 292 300 287 292 295 301 299 303 302 304 303 301 306 305 293 298 293 283 284 297 290 262 262 254 257 264 273 277 277 276 276 276 275 273
356 342 314 300 300 303 311 307 293 291 283 282 285 275 277 295 303 311 308 305 303 295 288 291 294 290 300 295 298 296 279 273 264 249 253 268 277 280 276 267 261 265 267
341 324 306 297 288 286 289 291 290 288 285 282 287 296 291 286 286 287 279 286 293 289 279 280 284 291 290 290 291 275 257 255 245 238 235 246 266 273 277 264 250 246 246
291 295 300 297 292 288 286 282 279 279 278 273 268 272 277 285 289 298 293 288 283 285 286 283 281 272 269 285 280 281 282 276 271 254 232 241 253 267 271 270 248 235 235
285 290 292 287 285 284 284 284 284 286 290 291 287 290 295 288 291 290 291 285 284 283 282 282 279 281 287 279 275 269 268 268 266 271 279 244 236 257 261 255 262 255 255
288 292 294 290 292 298 301 299 298 303 303 304 301 299 293 289 291 291 289 289 289 286 282 287 281 273 268 264 267 268 293 286 290 296 269 221 233 243 249 248 246 247 249
292 293 291 296 304 307 309 325 330 322 308 302 298 291 285 284 283 285 288 289 285 282 283 285 284 281 280 276 273 275 286 284 291 275 243 236 237 242 241 239 240 244 248
309 314 317 318 321 324 10 355 324 312 308 308 300 294 293 299 300 290 280 281 286 285 281 278 278 277 279 286 283 294 295 302 287 236 224 225 227 234 227 223 228 244 270
340 337 336 332 332 355 39 356 325 313 311 311 307 304 299 294 290 284 280 277 276 280 283 282 287 287 286 289 293 292 282 280 266 210 213 219 216 238 248 256 326 313 291
344 337 332 332 329 5 38 341 325 314 312 300 296 299 302 298 298 299 294 290 284 279 275 273 272 273 277 281 291 276 260 263 256 187 200 214 203 240 224 263 314 302 293
341 339 334 329 326 19 24 338 331 315 306 303 302 301 300 296 297 297 295 289 282 276 270 265 264 271 282 283 266 257 256 261 234 158 197 221 201 232 36 338 329 319 307
349 335 333 336 342 340 0 351 332 320 312 308 312 308 298 287 283 281 282 281 278 276 263 252 261 271 273 269 257 245 232 206 192 176 172 225 167 331 316 350 330 326 326
353 343 343 335 327 318 358 9 336 323 312 314 310 303 302 296 290 287 287 286 285 290 300 301 285 278 287 295 254 218 211 198 185 191 174 194 155 146 325 26 334 344 342